Weather History for KAQV - December, 2012

Change the Weather History Date:

Sunday, December 30, 2012

  Actual Average (KPOE) Record (KPOE)
Temperature  
Mean Temperature 36 °F -  
Max Temperature 46 °F 57 °F 73 °F (1999)
Min Temperature 26 °F 37 °F 26 °F (2000)
Degree Days  
Heating Degree Days 29    
Moisture  
Dew Point 26 °F    
Average Humidity 68    
Maximum Humidity 92    
Minimum Humidity 37    
Precipitation  
Precipitation 0.00 in - - ()
Sea Level Pressure  
Sea Level Pressure 30.41 in    
Wind  
Wind Speed 1 mph (North)    
Max Wind Speed 6 mph    
Max Gust Speed -    
Visibility 10 miles    
Events      
Averages and records for this station are not official NWS values.
T = Trace of Precipitation, MM = Missing Value Source: NWS Daily Summary

Daily Weather History Graph

Daily Weather History Graph

Search for Another Location

Airport or City:

Trip Planner

Search our weather history database for the weather conditions in past years. The results will help you decide how hot, cold, wet, or windy it might be!

Date:

Astronomy

Dec. 30, 2012 Rise Set
Actual Time 7:11 AM CST 5:20 PM CST
Civil Twilight 6:45 AM CST 5:46 PM CST
Nautical Twilight 6:14 AM CST 6:17 PM CST
Astronomical Twilight 5:45 AM CST 6:46 PM CST
Moon 7:41 PM CST (12/30) 8:29 AM CST (12/30)
Length of Visible Light 11h 01m
Length of Day
10h 08m
Waning Gibbous, 95% of the Moon is Illuminated
Dec 30
Waning Gibbous
Jan 4
Last Quarter
Jan 11
New
Jan 18
First Quarter
Jan 26
Full

Hourly Weather History & Observations

Time (CST) Temp. Windchill Dew Point Humidity Pressure Visibility Wind Dir Wind Speed Gust Speed Precip Events Conditions
12:56 AM 27.0 °F - 25.0 °F 92% 30.43 in 10.0 mi Calm Calm - N/A   Clear
1:56 AM 27.0 °F - 24.1 °F 89% 30.43 in 10.0 mi Calm Calm - N/A   Clear
2:56 AM 27.0 °F - 24.1 °F 89% 30.45 in 10.0 mi Calm Calm - N/A   Clear
3:56 AM 26.1 °F - 23.0 °F 88% 30.46 in 10.0 mi Calm Calm - N/A   Clear
4:56 AM 28.0 °F - 23.0 °F 81% 30.45 in 10.0 mi Calm Calm - N/A   Clear
5:56 AM 27.0 °F - 24.1 °F 89% 30.48 in 10.0 mi Calm Calm - N/A   Clear
6:56 AM 26.1 °F - 23.0 °F 88% 30.49 in 10.0 mi Calm Calm - N/A   Clear
7:56 AM 30.0 °F - 24.1 °F 79% 30.50 in 10.0 mi Calm Calm - N/A   Clear
8:56 AM 35.1 °F 32.2 °F 25.0 °F 67% 30.51 in 10.0 mi Variable 3.5 mph - N/A   Clear
9:56 AM 37.9 °F 33.5 °F 23.0 °F 55% 30.50 in 10.0 mi Variable 5.8 mph - N/A   Clear
10:56 AM 41.0 °F 39.0 °F 21.0 °F 45% 30.49 in 10.0 mi Variable 3.5 mph - N/A   Clear
11:56 AM 44.1 °F 42.5 °F 21.0 °F 40% 30.45 in 10.0 mi Variable 3.5 mph - N/A   Clear
12:56 PM 46.9 °F - 21.9 °F 37% 30.41 in 10.0 mi Variable 3.5 mph - N/A   Clear
1:56 PM 46.9 °F - 23.0 °F 39% 30.39 in 10.0 mi Calm Calm - N/A   Clear
2:56 PM 46.9 °F - 24.1 °F 41% 30.39 in 10.0 mi Calm Calm - N/A   Clear
3:56 PM 46.9 °F - 28.0 °F 48% 30.39 in 10.0 mi Calm Calm - N/A   Clear
4:56 PM 44.1 °F - 32.0 °F 63% 30.38 in 10.0 mi Calm Calm - N/A   Clear
5:56 PM 43.0 °F - 32.0 °F 65% 30.37 in 10.0 mi Calm Calm - N/A   Clear
6:56 PM 41.0 °F - 33.1 °F 73% 30.35 in 10.0 mi Calm Calm - N/A   Clear
7:56 PM 39.9 °F - 32.0 °F 73% 30.35 in 10.0 mi Calm Calm - N/A   Clear
8:56 PM 39.0 °F - 32.0 °F 76% 30.35 in 10.0 mi Calm Calm - N/A   Clear
9:56 PM 37.9 °F - 30.9 °F 76% 30.32 in 10.0 mi Calm Calm - N/A   Clear
10:56 PM 37.9 °F - 30.9 °F 76% 30.30 in 10.0 mi Calm Calm - N/A   Clear
11:56 PM 37.9 °F - 30.0 °F 73% 30.30 in 10.0 mi Calm Calm - N/A   Clear